Weather History for Orangeburg, SC

Change the Weather History Date:

Wednesday, December 26, 2012

  Actual Average Record
Temperature  
Mean Temperature 55 °F 46 °F  
Max Temperature 68 °F 56 °F 81 °F (1955)
Min Temperature 41 °F 35 °F 9 °F (1983)
Degree Days  
Heating Degree Days 10 19  
Month to date heating degree days 261 439  
Since 1 July heating degree days 711 808  
Cooling Degree Days 0 0  
Month to date cooling degree days 2 0  
Year to date cooling degree days 2322 2102  
Growing Degree Days 4 (Base 50)    
Moisture  
Dew Point 50 °F    
Average Humidity 79    
Maximum Humidity 100    
Minimum Humidity 45    
Precipitation  
Precipitation 0.43 in 0.09 in 0.99 in (1976)
Month to date precipitation 3.42 2.87  
Year to date precipitation 41.72 46.28  
Sea Level Pressure  
Sea Level Pressure 29.70 in    
Wind  
Wind Speed 16 mph (SSW)    
Max Wind Speed 31 mph    
Max Gust Speed 40 mph    
Visibility 7 miles    
Events Rain    
T = Trace of Precipitation, MM = Missing Value Source: NWS Daily Summary

Daily Weather History Graph

Daily Weather History Graph

Search for Another Location

Airport:

Trip Planner

Search our weather history database for the weather conditions in past years. The results will help you decide how hot, cold, wet, or windy it might be!

Date:

Astronomy

Dec. 26, 2012 Rise Set
Actual Time 7:25 AM EST 5:22 PM EST
Civil Twilight 6:58 AM EST 5:50 PM EST
Nautical Twilight 6:27 AM EST 6:21 PM EST
Astronomical Twilight 5:57 AM EST 6:51 PM EST
Moon 4:13 PM EST (12/26) 5:49 AM EST (12/26)
Length of Visible Light 10h 51m
Length of Day
9h 56m
Waxing Gibbous, 97% of the Moon is Illuminated
Dec 26
Waxing Gibbous
Dec 28
Full
Jan 4
Last Quarter
Jan 11
New
Jan 18
First Quarter

Hourly Weather History & Observations

Time (EST) Temp. Windchill Dew Point Humidity Pressure Visibility Wind Dir Wind Speed Gust Speed Precip Events Conditions
12:19 AM 53.6 °F - 51.8 °F 94% 29.92 in 7.0 mi Variable 5.8 mph - N/A   Overcast
12:53 AM 54.0 °F - 52.0 °F 93% 29.91 in 6.0 mi East 5.8 mph - N/A   Overcast
1:53 AM 55.0 °F - 53.1 °F 93% 29.88 in 3.0 mi East 9.2 mph - N/A   Overcast
2:22 AM 53.6 °F - 53.6 °F 100% 29.86 in 2.0 mi East 10.4 mph 16.1 mph N/A   Overcast
2:31 AM 53.6 °F - 53.6 °F 100% 29.85 in 1.5 mi East 8.1 mph 16.1 mph N/A   Overcast
2:53 AM 54.0 °F - 53.1 °F 97% 29.84 in 1.5 mi East 8.1 mph - N/A   Overcast
3:40 AM 55.4 °F - 53.6 °F 94% 29.83 in 2.0 mi Variable 3.5 mph - N/A   Overcast
3:51 AM 55.4 °F - 53.6 °F 94% 29.82 in 4.0 mi Variable 3.5 mph - N/A   Overcast
3:53 AM 55.0 °F - 54.0 °F 96% 29.81 in 5.0 mi East 4.6 mph - N/A   Overcast
4:53 AM 57.0 °F - 55.0 °F 93% 29.74 in 2.5 mi SE 11.5 mph 20.7 mph N/A   Overcast
5:17 AM 57.2 °F - 55.4 °F 94% 29.73 in 4.0 mi SE 9.2 mph - 0.00 in Rain Light Rain
5:43 AM 59.0 °F - 55.4 °F 88% 29.68 in 8.0 mi SE 13.8 mph 19.6 mph 0.00 in Rain Light Rain
5:53 AM 59.0 °F - 57.0 °F 93% 29.65 in 6.0 mi ESE 12.7 mph 21.9 mph 0.01 in Rain Light Rain
6:53 AM 63.0 °F - 59.0 °F 87% 29.65 in 10.0 mi South 12.7 mph 18.4 mph 0.01 in Rain Light Rain
7:53 AM 63.0 °F - 59.0 °F 87% 29.62 in 7.0 mi South 10.4 mph 17.3 mph 0.04 in Rain Light Rain
8:31 AM 62.6 °F - 59.0 °F 88% 29.62 in 2.0 mi South 16.1 mph 25.3 mph 0.13 in Rain Heavy Rain
8:35 AM 62.6 °F - 60.8 °F 94% 29.61 in 1.5 mi South 15.0 mph 25.3 mph 0.18 in Rain Heavy Rain
8:44 AM 62.6 °F - 60.8 °F 94% 29.60 in 2.0 mi South 15.0 mph 23.0 mph 0.20 in Rain Rain
8:53 AM 63.0 °F - 60.1 °F 90% 29.60 in 3.0 mi South 13.8 mph 19.6 mph 0.22 in Rain Heavy Rain
8:56 AM 62.6 °F - 60.8 °F 94% 29.60 in 2.5 mi South 13.8 mph 19.6 mph 0.02 in Rain Heavy Rain
9:15 AM 64.4 °F - 60.8 °F 88% 29.59 in 8.0 mi South 10.4 mph 20.7 mph 0.09 in Rain Light Rain
9:27 AM 64.4 °F - 60.8 °F 88% 29.59 in 2.5 mi SSW 10.4 mph 21.9 mph 0.15 in Rain Light Rain
9:42 AM 64.4 °F - 60.8 °F 88% 29.59 in 10.0 mi South 13.8 mph 20.7 mph 0.15 in Rain Light Rain
9:53 AM 64.9 °F - 61.0 °F 87% 29.60 in 10.0 mi South 13.8 mph 21.9 mph 0.15 in   Overcast
10:48 AM 66.2 °F - 59.0 °F 78% 29.59 in 10.0 mi SW 17.3 mph 26.5 mph N/A   Mostly Cloudy
10:53 AM 66.9 °F - 59.0 °F 76% 29.59 in 10.0 mi SW 17.3 mph 26.5 mph N/A   Scattered Clouds
11:53 AM 66.0 °F - 46.0 °F 48% 29.57 in 10.0 mi WSW 19.6 mph 29.9 mph N/A   Partly Cloudy
12:53 PM 66.0 °F - 44.1 °F 45% 29.55 in 10.0 mi WSW 23.0 mph 31.1 mph N/A   Partly Cloudy
1:53 PM 64.9 °F - 44.1 °F 47% 29.53 in 10.0 mi WSW 21.9 mph 38.0 mph N/A   Scattered Clouds
2:53 PM 62.1 °F - 42.1 °F 48% 29.54 in 10.0 mi WSW 18.4 mph 25.3 mph N/A   Scattered Clouds
3:53 PM 59.0 °F - 39.0 °F 48% 29.57 in 10.0 mi West 21.9 mph 38.0 mph N/A   Overcast
4:53 PM 51.1 °F - 34.0 °F 52% 29.63 in 10.0 mi West 24.2 mph 40.3 mph N/A   Scattered Clouds
5:53 PM 48.9 °F - 33.1 °F 54% 29.68 in 10.0 mi West 25.3 mph 35.7 mph N/A   Overcast
6:53 PM 46.9 °F - 32.0 °F 56% 29.71 in 10.0 mi West 17.3 mph 33.4 mph N/A   Overcast
7:53 PM 45.0 °F 37.4 °F 30.9 °F 58% 29.75 in 10.0 mi West 18.4 mph 31.1 mph N/A   Overcast
8:53 PM 44.1 °F 35.9 °F 30.9 °F 60% 29.78 in 10.0 mi West 19.6 mph 35.7 mph N/A   Overcast
9:53 PM 43.0 °F 34.5 °F 30.0 °F 60% 29.80 in 10.0 mi West 19.6 mph 28.8 mph N/A   Mostly Cloudy
10:53 PM 42.1 °F 34.2 °F 28.9 °F 60% 29.82 in 10.0 mi West 16.1 mph - N/A   Scattered Clouds
11:53 PM 41.0 °F 33.1 °F 28.9 °F 62% 29.83 in 10.0 mi West 15.0 mph 26.5 mph N/A   Clear